Current Version              Previous Version:    01  02  03  04  05  06  07  08  09  10  11  12  13  14  15  16  17  18  19  20  21  22  23  24  25  26  27  28  29  30  
   31  32  33  34  35  36  37  38  39  40  41  42  43  44  45  46  47  48  49  50  51  52  53  54  55  56  57  58  59  60  

[Printable]
404
ASUS44 KEWX 231002
RWRTX
SOUTH TEXAS REGIONAL WEATHER ROUNDUP
NATIONAL WEATHER SERVICE AUSTIN/SAN ANTONIO TX
500 AM CDT WED APR 23 2014

NOTE: "FAIR" INDICATED FEW OR NO CLOUDS BELOW 12,000 FEET WITH NO
SIGNIFICANT WEATHER AND/OR OBSTRUCTIONS TO VISIBILITY.

* - THESE STATIONS ARE NOT NWS OR FAA STATIONS...AND ARE NOT SUBJECT
    TO NWS AND FAA QUALITY CONTROL.

TXZ171-172-183>190-231100-
TEXAS HILL COUNTRY AND EDWARDS PLATEAU

CITY           SKY/WX    TMP DP  RH WIND       PRES   REMARKS
JUNCTION       CLEAR     62  55  77 CALM      29.92F
*LLANO         CLEAR     59  55  88 CALM      29.96S
BURNET         CLEAR     62  54  74 CALM      29.95S
*HORSESHOE BAY CLEAR     60  54  82 CALM      29.92S
*KERRVILLE     CLEAR     59  55  87 CALM      29.95S
*FREDERICKSBRG CLEAR     56  53  91 CALM      29.95S
*ROCKSPRINGS   CLEAR     66  61  82 SE9       29.95F
*BOERNE STAGE  CLEAR     57  52  82 CALM      29.94F
*CASTROVILLE   PTCLDY    67  61  81 E5        29.92F
HONDO          CLOUDY    70  62  76 NE3       29.93R
*UVALDE        MOCLDY    68  63  83 NE5       29.91S
DEL RIO        CLEAR     73  61  65 E12       29.85F
LAUGHLIN AFB   NOT AVBL
CARRIZO SPRGS  CLEAR     68  63  83 E6        29.86F
$$

TXZ173-191>194-202-209-217>225-228-231100-
CENTRAL AND SOUTH CENTRAL TEXAS

CITY           SKY/WX    TMP DP  RH WIND       PRES   REMARKS
GEORGETOWN     CLEAR     55  52  88 CALM      29.93S
AUSTIN/BERGSTM CLEAR     56  55  97 W3        29.92S
AUSTIN/MABRY   CLEAR     63  57  81 CALM      29.93S
*AUSTIN/EXEC   CLEAR     61  59  94 CALM      29.93S
*LAGO VISTA    CLEAR     67  58  75 S3        29.95R
SAN MARCOS     CLEAR     57  50  77 CALM      29.95S
NEW BRAUNFELS  CLEAR     60  56  86 CALM      29.91F
RANDOLPH AFB   NOT AVBL
PT SAN ANTONIO CLEAR     66  62  86 E5        29.90S
SAN ANTONIO    CLEAR     66  61  84 CALM      29.92F
STINSON FIELD  PTCLDY    67  63  87 E3        29.89F
*PLEASANTON    CLEAR     65  63  91 CALM      29.91S
*LA GRANGE     CLEAR     62  62  98 CALM      29.91S FOG
*GIDDINGS      CLEAR     59  57  94 CALM      29.96S
*GONZALES      CLEAR     64  64  99 SE3       29.91S FOG
$$

TXZ163>164-176>182-195>201-210>213-226-227-235-231100-
SOUTHEAST TEXAS

CITY           SKY/WX    TMP DP  RH WIND       PRES   REMARKS
COLLEGE STN    CLEAR     63  60  90 CALM      29.92S
*BRYAN         CLEAR     59  58  98 CALM      29.92S
*CALDWELL      CLEAR     57  57 100 CALM      29.95F
*CROCKETT      CLEAR     61  61 100 CALM      29.96S
*BRENHAM       CLEAR     63  61  94 CALM      29.93S
HUNTSVILLE     CLEAR     64  59  83 S3        29.94S
CONROE         MOCLDY    57  56  96 CALM      29.94S
HOUSTON BUSH   MOCLDY    65  64  97 CALM      29.93S
HOUSTON HOBBY  FOG       66  65  96 CALM      29.93R VSB 1
*HOUSTON SW AP FOG       64  64 100 CALM      29.94R VSB 1/4
PEARLAND       FOG       66  65  96 CALM      29.94S VSB 1/4
HOUSTON HOOKS  MOCLDY    65  64  97 CALM      29.93S FOG
ELLINGTON FLD  FOG       68  66  94 CALM      29.94S VSB 1/2
SUGAR LAND     LGT RAIN  63  63 100 CALM      29.93R
*HOUSTON EXEC  HAZE      63  41  45 CALM      29.94S VSB<1/4
*CLEVELAND MUN FOG       60  60  99 CALM      29.95S VSB 1/4
*WHARTON       FOG       62  61  98 CALM      29.93S VSB 1/2
$$

TXZ214>216-236>238-231100-
THE UPPER TEXAS COAST

CITY           SKY/WX    TMP DP  RH WIND       PRES   REMARKS
*ORANGE        FOG       67  67 100 CALM      29.95S VSB 1/4
PORT ARTHUR    FOG       67  65  93 CALM      29.93S VSB 1/4
GALVESTON      FOG       68  68 100 CALM      29.94S VSB 1/4
ANGLETON       FOG       64  64 100 N3        29.93R VSB 1/2
*BAY CITY      FOG       64  64  99 CALM      29.92S VSB 1/4
PALACIOS       PTCLDY    72  68  87 S7        29.91F
$$

TXZ229>234-239>247-231100-
TEXAS COASTAL BEND AND RIO GRANDE PLAINS

CITY           SKY/WX    TMP DP  RH WIND       PRES   REMARKS
VICTORIA       FOG       66  66 100 CALM      29.92S VSB 1/4
*BEEVILLE      CLEAR     66  66 100 CALM      29.90F
ROCKPORT       PTCLDY    70  68  93 S3        29.90F
*PORT ARANSAS  CLEAR     69  69 100 S5        29.90F
*PORT LAVACA   FOG       65  64  98 S3        29.91S VSB 1/4
*INGLESIDE     CLEAR     70  69  97 S6        29.90F
CORPUS CHRISTI PTCLDY    68  66  93 SE6       29.90S
CORPUS NAS     CLEAR     71  69  93 S9        29.89F
*ROBSTOWN      CLEAR     68  66  94 SE6       29.90F
ALICE          PTCLDY    64  62  93 SE5       29.89S
KINGSVILLE NAS PTCLDY    69  68  96 S6        29.90S
COTULLA        CLEAR     69  63  81 E5        29.89R
*FAITH RANCH   CLEAR     72  66  83 SE7       29.86F
LAREDO         CLEAR     72  68  87 SE7       29.88F
$$

TXZ248>255-231100-
DEEP SOUTH TEXAS

CITY           SKY/WX    TMP DP  RH WIND       PRES   REMARKS
BROWNSVILLE    PTCLDY    68  67  96 SE6       29.88F
PORT ISABEL    NOT AVBL
*SOUTH PADRE   LGT RAIN  70  68  94 CALM      29.89F
HARLINGEN      PTCLDY    65  64  97 SE5       29.87F
*HEBBRONVILLE  CLOUDY    69  65  90 SE6       29.90S
MCALLEN        PTCLDY    70  68  93 SE6       29.87F
*WESLACO       PTCLDY    69  65  90 S6        29.88S
FALFURRIAS     CLOUDY    68  65  91 SE6       29.89S
EDINBURG       PTCLDY    69  66  90 CALM      29.88F
*ZAPATA        MOCLDY    69  68  98 SE6       29.86F
$$

TXZ213>215-236>238-242>244-246-247-251-254-255-231100-
CMAN STATIONS

STATION/POSITION TIME  TEMP    WIND        PRES    WAVE
                       AIR SEA DIR/SP/G            HT/PER
                 (UTC) (F)     (DEG/KT/KT) (MB)    (FT/S)
SABINE PASS      0900   67 72  210/  3/  4 1013.6
SEA RIM ST PARK  0900   68     210/  3/  3 1014.1
NORTH JETTY/GLS  0900   69 73  320/  2/  3   N/A
EAGLE POINT      0900   66 67   CALM  /  1 1013.3
MORGANS POINT    0900   67 68  280/  1/  2   N/A
MISSION/ARANSAS  0900   71     170/  8     1014.0
PORT O`CONNOR    0900          200/  6/  7   N/A
PORT ARANSAS     0900   70 73  160/  6/  6 1012.9
MALAQUITE BEACH  0900   71 73  150/  8/ 10 1011.8
BAFFIN BAY       0900   71 72  170/  9/ 11 1012.4
PORT ISABEL      0900   70 74  160/  5/  7 1012.5
$$

GMZ080-GMZ150>470-231100-
OFFSHORE BUOY REPORTS

STATION/POSITION TIME  TEMP    WIND        PRES    WAVE
                       AIR SEA DIR/SP/G            HT/PER
                 (UTC) (F)     (DEG/KT/KT) (MB)    (FT/S)
20 E GALVESTON   1000   69 70  210/  6/  8 1013.3    1/ 5
35 NE PT MANSFLD 1000   71 70  150/  4/  4 1012.7    2/ 5
$$